FW2175 Weather Reports


time (UTC)temp
C
wind
direction
speed
KPH
gust
KPH
rain 1hr
cm
rain 24hr
cm
rain mn
cm
humidity
%
barometer
mb
20260506154550 11 203 0.0 4.8 0.00 0.00 0.00 45 1019.6
20260506153046 11 0 0.0 4.8 0.00 0.00 0.00 44 1019.5
20260506151545 11 94 4.8 11.3 0.00 0.00 0.00 44 1019.2
20260506150044 11 93 1.6 6.4 0.00 0.00 0.00 44 1018.9
20260506144543 11 119 3.2 6.4 0.00 0.00 0.00 44 1019.0
20260506143044 10 0 0.0 0.0 0.00 0.00 0.00 44 1019.3
20260506141541 10 0 0.0 0.0 0.00 0.00 0.00 44 1019.2
20260506140042 10 0 0.0 1.6 0.00 0.00 0.00 44 1018.8
20260506134545 10 0 0.0 3.2 0.00 0.00 0.00 44 1018.7
20260506133042 10 0 1.6 4.8 0.00 0.00 0.00 44 1018.8
20260506131549 10 0 0.0 1.6 0.00 0.00 0.00 44 1018.9
20260506130057 10 0 1.6 4.8 0.00 0.00 0.00 45 1018.9
20260506124545 10 0 0.0 0.0 0.00 0.00 0.00 45 1019.0
20260506123040 10 0 0.0 1.6 0.00 0.00 0.00 45 1018.6
20260506121544 10 0 0.0 1.6 0.00 0.00 0.00 46 1018.4
20260506120043 10 0 0.0 1.6 0.00 0.00 0.00 46 1018.5
20260506114541 10 0 0.0 0.0 0.00 0.00 0.00 46 1018.5
20260506113050 10 0 0.0 1.6 0.00 0.00 0.00 46 1018.4
20260506111547 9 0 0.0 1.6 0.00 0.00 0.00 46 1018.3
20260506110053 10 0 0.0 0.0 0.00 0.00 0.00 46 1018.2
20260506104551 10 0 0.0 1.6 0.00 0.00 0.00 46 1018.0
20260506103048 10 0 0.0 3.2 0.00 0.00 0.00 46 1017.7
20260506101551 10 0 1.6 3.2 0.00 0.00 0.00 46 1017.7
20260506100058 10 0 0.0 1.6 0.00 0.00 0.00 46 1017.6
20260506094536 9 0 0.0 1.6 0.00 0.00 0.00 46 1017.6
20260506093048 9 0 0.0 3.2 0.00 0.00 0.00 45 1017.6
20260506091541 8 0 0.0 0.0 0.00 0.00 0.00 44 1017.5
20260506090042 9 0 0.0 3.2 0.00 0.00 0.00 45 1017.3
20260506084600 9 63 0.0 3.2 0.00 0.00 0.00 45 1017.4
20260506083039 8 73 0.0 3.2 0.00 0.00 0.00 44 1017.3
20260506081553 9 0 0.0 1.6 0.00 0.00 0.00 44 1017.2
20260506073047 10 84 1.6 3.2 0.00 0.00 0.00 46 1016.7
20260506071541 10 0 0.0 0.0 0.00 0.00 0.00 46 1016.7
20260506061541 10 0 0.0 3.2 0.00 0.00 0.00 51 1016.4
20260506044622 12 59 1.6 4.8 0.00 0.00 0.00 61 1015.9
20260506043046 12 45 3.2 6.4 0.00 0.00 0.00 62 1015.6
20260506041556 13 35 1.6 4.8 0.00 0.00 0.00 62 1015.5
20260506040043 13 47 0.0 3.2 0.00 0.00 0.00 62 1015.4
20260506034610 14 0 0.0 4.8 0.00 0.00 0.00 61 1015.3
20260506033038 15 308 3.2 6.4 0.00 0.00 0.00 60 1015.0
20260506031543 15 306 1.6 6.4 0.00 0.00 0.00 58 1014.9
20260506030042 16 264 3.2 14.5 0.00 0.00 0.00 57 1014.9
20260506024541 16 0 0.0 1.6 0.00 0.00 0.00 56 1014.9
20260506023101 17 0 0.0 3.2 0.00 0.00 0.00 55 1014.8
20260506021543 17 0 0.0 3.2 0.00 0.00 0.00 55 1014.9
20260506020045 17 250 4.8 11.3 0.00 0.00 0.00 54 1014.9
20260506014539 17 254 3.2 11.3 0.00 0.00 0.00 53 1014.9
20260506013041 18 190 1.6 6.4 0.00 0.00 0.00 53 1014.9
20260506011549 18 264 3.2 11.3 0.00 0.00 0.00 54 1014.8
20260506010051 18 0 0.0 12.9 0.00 0.00 0.00 53 1014.9
20260506004600 18 0 3.2 9.7 0.00 0.00 0.00 54 1014.8
20260506003047 18 240 9.7 14.5 0.00 0.00 0.00 54 1015.0
20260506001539 18 197 3.2 14.5 0.00 0.00 0.00 55 1015.0
20260506000036 18 263 4.8 11.3 0.00 0.00 0.00 53 1015.1
20260505234601 18 42 1.6 8.0 0.00 0.00 0.00 53 1015.3
20260505233039 19 316 0.0 12.9 0.00 0.00 0.00 54 1015.4
20260505231537 17 190 4.8 14.5 0.00 0.00 0.00 54 1015.5
20260505230042 17 0 4.8 12.9 0.00 0.00 0.00 56 1015.6
20260505224543 16 294 1.6 6.4 0.00 0.00 0.00 56 1015.8
20260505223042 16 0 0.0 14.5 0.00 0.00 0.00 56 1015.9
20260505221541 16 234 6.4 12.9 0.00 0.00 0.00 56 1016.0
20260505220054 15 0 3.2 8.0 0.00 0.00 0.00 55 1016.1
20260505214543 15 192 1.6 12.9 0.00 0.00 0.00 56 1016.2
20260505213043 15 247 4.8 14.5 0.00 0.00 0.00 55 1016.2
20260505203044 14 273 6.4 14.5 0.00 0.00 0.00 55 1016.4
20260505201545 14 0 1.6 6.4 0.00 0.00 0.00 55 1016.5
20260505200041 13 322 0.0 6.4 0.00 0.00 0.00 55 1016.5
20260505194545 13 0 0.0 6.4 0.00 0.00 0.00 55 1016.5
20260505193046 13 256 4.8 11.3 0.00 0.00 0.00 55 1016.6
20260505191552 13 219 0.0 4.8 0.00 0.00 0.00 54 1016.5
20260505190046 13 254 3.2 11.3 0.00 0.00 0.00 54 1016.5
20260505184544 13 284 3.2 6.4 0.00 0.00 0.00 54 1016.5
20260505183041 13 269 1.6 6.4 0.00 0.00 0.00 54 1016.5
20260505181540 13 248 1.6 6.4 0.00 0.00 0.00 54 1016.3
20260505180050 13 125 0.0 3.2 0.00 0.00 0.00 53 1016.2
20260505174602 13 0 0.0 3.2 0.00 0.00 0.00 52 1016.3
20260505173045 12 144 0.0 6.4 0.00 0.00 0.00 52 1016.2
20260505171541 12 0 0.0 3.2 0.00 0.00 0.00 51 1016.2
20260505170043 12 190 1.6 4.8 0.00 0.00 0.00 50 1016.2
20260505164549 12 209 0.0 3.2 0.00 0.00 0.00 49 1016.2
20260505163046 12 209 0.0 3.2 0.00 0.00 0.00 49 1016.2
20260505161548 12 0 0.0 6.4 0.00 0.00 0.00 49 1016.1